Regional Weather Roundup
Issued by NWS Sioux Falls, SD

Home | Current Version | Previous Version | Text Only | Print | Product List | Glossary On
Versions: 1 2 3 4 5 6 7 8 9 10 11 12 13 14 15 16 17 18 19 20 21 22 23 24 25 26 27 28 29 30 31 32 33 34 35 36 37 38 39 40 41 42 43 44 45 46 47 48 49 50
000
ASUS43 KFSD 310910
RWRFSD

WEATHER ROUNDUP FOR SE SOUTH DAKOTA/SW MINNESOTA/NW IOWA
NATIONAL WEATHER SERVICE SIOUX FALLS SD
400 AM CDT SUN JUL 31 2016

NOTE: "FAIR" INDICATES FEW OR NO CLOUDS BELOW 12,000 FEET WITH NO
SIGNIFICANT WEATHER AND OR OBSTRUCTIONS TO VISIBILITY.


SDZ038>040-050-052>070-311000-
SOUTHEAST SOUTH DAKOTA

CITY           SKY/WX    TMP DP  RH WIND       PRES   REMARKS
BROOKINGS      PTCLDY    63  60  90 SE9       29.92F
CHAMBERLAIN    MOCLDY    73  64  72 S10G22    29.81F
HURON          CLOUDY    71  63  75 SE13      29.83F
MADISON        FAIR      64  64 100 S9        29.92F
MITCHELL       CLOUDY    73  65  75 SE12      29.87F
SIOUX FALLS    PTCLDY    68  62  81 SE10      29.93S
WINNER         LGT RAIN  68  64  87 SW9       29.88F
YANKTON        MOCLDY    70  64  83 SE8       29.89F
$$

MNZ071-072-080-081-089-090-097-098-311000-
SOUTHWEST MINNESOTA

CITY           SKY/WX    TMP DP  RH WIND       PRES   REMARKS
FAIRMONT       CLEAR     61  57  88 SE6       29.98S
JACKSON        CLEAR     64  61  88 SE7       29.98F
LUVERNE        CLEAR     61  59  94 S3        29.96F
MARSHALL       CLEAR     64  62  93 S7        29.95F
MONTEVIDEO     CLEAR     63  63 100 S7        29.96F
PIPESTONE      CLEAR     64  61  88 SE8       29.95F
REDWOOD FALLS  CLEAR     64  61  90 SE6       29.96S
TRACY          PTCLDY    65  63  93 S7        29.97S
WINDOM         CLEAR     64  63  94 SE3       29.98S
WORTHINGTON    CLEAR     63  62  97 SE5       29.98F
$$

IAZ001>003-012>014-020>022-031-032-NEZ013-014-SDZ071-311000-
NORTHWEST IOWA

CITY           SKY/WX    TMP DP  RH WIND       PRES   REMARKS
CHEROKEE       CLEAR     64  64  99 CALM      29.96S
DENISON        CLOUDY    66  64  94 SE6       29.95S
ESTHERVILLE    CLEAR     61  61 100 SE7       29.98F FOG
LE MARS        MOCLDY    68  63  83 SE8       29.95S
SHELDON        CLEAR     63  63 100 SE7       29.94F
SIOUX CITY     PTCLDY    68  64  87 SE8       29.93S
SPENCER        CLEAR     64  61  90 SE6       29.98S
STORM LAKE     CLEAR     63  63 100 SE6       29.98S
$$

ABBREVIATIONS USED IN REMARKS
   TC - TEMPERATURE IN CELSIUS
  WCI - WIND CHILL INDEX
   HX - HEAT INDEX
  VSB - VISIBILITY




USA.gov is the U.S. government's official web portal to all federal, state and local government web resources and services.